Location: Hartford
(41.7640°N, 72.6860°W)
Time: 03:24:57
(UTC-05:00)

ISS - All Passes

Search period start: 05 December 2016 00:00
Search period end: 15 December 2016 00:00
Orbit: 401 x 410 km, 51.6° (Epoch: 05 December)

Date Brightness Start Highest point End Pass type
(mag) Time Alt. Az. Time Alt. Az. Time Alt. Az.
05 Dec - 16:00:55 10° SSW 16:04:03 43° SE 16:07:12 10° ENE daylight
05 Dec - 17:37:42 10° W 17:40:39 29° NNW 17:43:36 10° NE visible
05 Dec - 19:15:55 10° NW 19:17:56 15° N 19:19:57 10° NE visible
05 Dec - 20:52:45 10° NW 20:55:21 21° NNE 20:57:57 10° ENE night (unlit)
05 Dec - 22:28:54 10° NW 22:32:14 89° NE 22:35:32 10° SE night (unlit)
06 Dec - 00:07:27 10° WSW 00:08:14 11° SW 00:09:02 10° SW night (unlit)
06 Dec - 15:09:34 10° S 15:12:13 23° SE 15:14:53 10° E daylight
06 Dec - 16:45:23 10° WSW 16:48:33 44° NNW 16:51:45 10° NE visible
06 Dec - 18:23:28 10° NW 18:25:41 16° N 18:27:54 10° NNE visible
06 Dec - 20:00:52 10° NNW 20:03:09 17° N 20:05:26 10° NE night (unlit)
06 Dec - 21:36:59 10° NW 21:40:14 50° NNE 21:43:28 10° ESE night (unlit)
06 Dec - 23:13:59 10° W 23:16:30 20° SW 23:19:00 10° S night (unlit)
07 Dec - 14:19:03 10° SSE 14:20:27 12° SE 14:21:53 10° ESE daylight
07 Dec - 15:53:14 10° WSW 15:56:31 77° NW 15:59:50 10° NE daylight
07 Dec - 17:30:56 10° WNW 17:33:27 20° NNW 17:35:57 10° NE visible
07 Dec - 19:08:50 10° NNW 19:10:53 15° N 19:12:55 10° NE visible
07 Dec - 20:45:07 10° NW 20:48:08 32° NNE 20:51:09 10° E night (unlit)
07 Dec - 22:21:35 10° WNW 22:24:40 37° SW 22:27:45 10° SSE night (unlit)
08 Dec - 15:01:21 10° SW 15:04:34 56° SE 15:07:48 10° ENE daylight
08 Dec - 16:38:26 10° W 16:41:15 25° NNW 16:44:05 10° NE daylight
08 Dec - 18:16:37 10° NW 18:18:35 15° N 18:20:34 10° NE visible
08 Dec - 19:53:15 10° NW 19:55:59 23° NNE 19:58:41 10° ENE night (unlit)
08 Dec - 21:29:27 10° WNW 21:32:45 72° SW 21:36:02 10° SE night (unlit)
09 Dec - 14:09:47 10° SSW 14:12:40 29° SE 14:15:34 10° ENE daylight
09 Dec - 15:46:00 10° W 15:49:06 37° NNW 15:52:12 10° NE daylight
09 Dec - 17:24:11 10° NW 17:26:17 16° N 17:28:25 10° NNE visible
09 Dec - 19:01:21 10° NNW 19:03:44 18° NNE 19:06:07 10° ENE visible
09 Dec - 20:37:27 10° NW 20:40:44 62° NNE 20:44:01 10° ESE night (unlit)
09 Dec - 22:14:49 10° W 22:16:55 16° SW 22:19:00 10° S night (unlit)
10 Dec - 13:18:47 10° S 13:20:50 16° SE 13:22:54 10° E daylight
10 Dec - 14:53:45 10° WSW 14:57:00 62° NNW 15:00:17 10° NE daylight
10 Dec - 16:31:38 10° WNW 16:34:00 18° NNW 16:36:23 10° NNE daylight
10 Dec - 18:09:20 10° NNW 18:11:27 16° N 18:13:34 10° NE visible
10 Dec - 19:45:32 10° NW 19:48:39 37° NNE 19:51:45 10° E night (unlit)
10 Dec - 21:22:09 10° WNW 21:25:05 29° SW 21:27:59 10° SSE night (unlit)
11 Dec - 14:01:43 10° SW 14:04:58 72° SE 14:08:16 10° ENE daylight
11 Dec - 15:39:03 10° WNW 15:41:45 23° NNW 15:44:28 10° NE daylight
11 Dec - 17:17:09 10° NW 17:19:08 15° N 17:21:06 10° NE visible
11 Dec - 18:53:38 10° NW 18:56:28 25° NNE 18:59:18 10° E visible
11 Dec - 20:29:54 10° WNW 20:33:09 56° SW 20:36:23 10° SE night (unlit)
12 Dec - 13:09:58 10° SSW 13:13:00 37° SE 13:16:05 10° ENE daylight
12 Dec - 14:46:33 10° W 14:49:32 31° NNW 14:52:32 10° NE daylight
12 Dec - 16:24:45 10° NW 16:26:47 15° N 16:28:49 10° NNE daylight
12 Dec - 18:01:42 10° NW 18:04:13 20° NNE 18:06:43 10° ENE visible
12 Dec - 19:37:49 10° NW 19:41:08 77° NNE 19:44:26 10° ESE visible
12 Dec - 21:15:44 10° WSW 21:17:12 12° SW 21:18:40 10° SSW night (unlit)
13 Dec - 12:18:40 10° S 12:21:07 20° SE 12:23:35 10° E daylight
13 Dec - 13:54:11 10° WSW 13:57:23 50° NNW 14:00:36 10° NE daylight
13 Dec - 15:32:12 10° NW 15:34:27 17° N 15:36:43 10° NNE daylight
13 Dec - 17:09:42 10° NNW 17:11:54 16° N 17:14:06 10° NE visible
13 Dec - 18:45:50 10° NW 18:49:01 44° NNE 18:52:12 10° ESE visible
13 Dec - 20:22:40 10° W 20:25:21 23° SW 20:28:02 10° S night (unlit)
14 Dec - 11:28:40 10° SE 11:29:17 10° SE 11:29:54 10° ESE daylight
14 Dec - 13:02:01 10° SW 13:05:17 89° NNW 13:08:34 10° NE daylight
14 Dec - 14:39:34 10° WNW 14:42:08 21° NNW 14:44:43 10° NE daylight
14 Dec - 16:17:33 10° NNW 16:19:33 15° N 16:21:33 10° NE daylight
14 Dec - 17:53:53 10° NW 17:56:50 29° NNE 17:59:47 10° E visible
14 Dec - 19:30:16 10° WNW 19:33:25 43° SW 19:36:34 10° SSE visible
